Back to catalog

STARLINK-4126

AliveCommunicationsVLEO
NORAD 52867·PAYLOAD·🇺🇸 United States

Launched Jun 17, 2022 from Cape Canaveral Space Force Station

Loading…

Next Passes (next 24 hours)

TLE

FreshSource: CelesTrak SupGP

Epoch: Sep 14, 2026, 21:10 UTC

1 52867C 22062AP  26257.88243056  .00040632  00000+0  12006-2 0  2570
2 52867  53.1570 239.8471 0001415  88.9628 349.8763 15.34366401    11

Track STARLINK-4126 in real time with AllMySat

Download on the App Store